CAPE
0 2 3 3 1 0 53 74 108 144 130 98 91 142 168 259 162 71 20 3 2 1
1 0 1 6 4 8 73 5 21 115 143 142 194 321 291 72 29 71 16 3 1 3
4 5 5 5 5 3 1 1 3 45 136 121 179 299 301 102 47 20 7 2 2 0
1 2 2 0 1 2 4 1 1 3 16 107 152 233 323 151 17 14 6 1 1 0
1 4 2 2 2 0 1 1 0 0 4 18 28 162 217 6 1 0 0 0 1 1
8 1 4 5 3 3 4 3 2 3 1 2 11 18 27 2 0 0 1 0 1 1
2 3 4 3 2 0 2 2 2 2 1 0 0 0 0 0 0 1 1 1 1 1
0 0 0 1 1 1 3 5 1 1 1 1 0 1 1 1 1 1 0 1 0 0
0 0 0 0 0 2 0 3 1 1 1 1 3 6 3 0 1 1 1 1 1 1
0 0 0 0 1 1 1 0 1 1 1 2 5 9 7 2 0 0 0 0 0 1
2 1 0 0 0 0 0 0 0 1 1 2 7 9 6 1 0 0 0 0 0 0
0 1 0 0 0 0 0 0 0 0 0 3 4 3 0 0 0 0 0 0 0 0
0 0 1 0 0 0 0 0 0 0 0 1 1 1 0 0 0 0 0 0 0 0
0 0 0 0 0 0 0 0 0 0 0 0 0 0 1 2 0 0 0 0 0 0
CIN
-1 -1 -1 -2 0 0 -12 -26 -27 -24 -13 -14 -1 -25 -8 -2 -1 -8 -24 -3 -1 0
0 -1 -6 -3 -4 -4 -6 -9 -44 -33 -22 -19 -13 -1 -1 -7 -8 -4 -4 -1 -1 -1
0 0 0 0 0 0 0 0 0 -58 -37 -34 -30 -1 -1 -3 -6 -3 -13 0 0 0
-1 0 0 0 0 0 0 0 0 0 -108 -50 -36 -11 0 0 -20 -26 -21 -2 0 0
0 0 0 0 0 0 -1 0 0 -1 -2 -107 -116 -20 0 -20 -2 0 0 0 0 0
-13 0 -7 0 0 0 0 0 0 0 0 -1 -63 -22 -14 -7 0 0 0 0 0 0
0 0 0 0 0 0 0 0 0 0 0 0 0 0 0 0 0 0 0 0 0 0
0 0 0 0 0 0 0 0 0 0 0 0 0 0 0 0 0 0 0 0 0 0
0 0 0 0 0 0 0 0 0 0 0 0 0 0 0 0 0 0 0 0 0 0
0 0 0 0 0 0 0 0 0 0 0 0 0 0 0 0 0 0 0 0 0 0
0 0 0 0 0 0 0 0 0 0 0 0 0 0 0 0 0 0 0 0 0 0
0 0 0 0 0 0 0 0 0 0 0 0 0 0 0 0 0 0 0 0 0 0
0 0 0 0 0 0 0 0 0 0 0 0 0 0 0 0 0 0 0 0 0 0
0 0 0 0 0 0 0 0 0 0 0 0 0 0 -4 -3 0 0 0 0 0 0
Wind_Speed
5 2 4 3 4 4 5 6 7 7 5 3 8 6 9 7 7 8 8 10 8 6
2 4 4 3 3 2 3 3 5 6 7 6 5 8 9 6 6 7 8 9 9 7
4 4 4 3 3 3 2 3 4 3 5 5 8 8 7 7 8 9 7 6 9 7
3 3 4 4 3 3 2 3 4 5 4 5 6 7 7 6 7 7 7 7 10 10
3 3 4 3 4 5 4 1 2 3 4 4 5 5 7 5 6 7 7 7 8 8
5 4 4 3 3 4 4 4 3 3 4 4 4 1 3 6 7 7 7 7 7 8
5 4 4 4 4 5 4 3 3 3 3 5 6 7 8 9 9 9 8 8 8 7
6 5 6 6 5 6 5 5 6 7 8 8 7 6 9 10 10 9 9 9 9 8
6 7 7 7 6 6 5 7 7 9 8 9 6 17 18 12 10 11 11 10 9 9
7 8 9 8 7 7 7 8 9 9 10 10 10 21 22 21 11 12 11 11 10 9
8 9 9 9 8 8 8 8 8 9 10 10 11 22 24 23 12 11 10 10 10 9
10 10 10 9 8 7 9 9 10 10 11 11 11 22 23 17 12 11 10 9 10 11
11 10 10 10 9 7 8 9 10 11 11 16 11 17 18 13 8 11 10 11 12 15
10 10 11 11 9 7 9 10 11 11 11 12 11 10 10 11 9 8 8 8 8 8
Wind_Direction
90 165 191 137 200 190 206 196 188 184 203 224 215 211 181 182 181 181 187 176 170 158
142 181 165 107 185 209 194 191 208 213 222 209 231 225 184 175 186 184 181 177 172 167
184 156 129 118 139 185 210 236 241 214 198 222 231 231 198 175 178 182 178 172 177 149
40 96 71 51 11 349 337 256 260 259 262 209 207 210 213 171 173 185 178 178 169 157
127 133 95 70 18 2 13 96 254 257 269 236 228 244 183 146 154 158 160 159 164 170
143 121 95 79 36 9 8 347 321 240 210 232 230 91 103 124 127 123 127 131 135 142
116 122 103 93 64 35 34 358 48 51 104 106 91 100 104 106 107 106 111 112 117 111
124 108 107 89 61 58 40 61 60 65 63 79 88 98 106 105 108 106 91 84 80 85
131 121 106 95 76 70 60 74 71 73 75 81 89 103 100 96 92 89 87 84 77 77
150 126 110 98 86 70 61 75 69 74 80 83 92 101 98 92 88 90 87 87 86 85
135 123 110 100 85 76 69 67 69 71 75 85 92 100 99 93 89 87 90 97 105 114
129 126 116 101 92 89 92 89 79 72 76 85 95 105 105 104 105 112 116 96 86 85
128 127 115 108 100 97 98 102 97 93 88 92 97 103 110 109 109 102 98 91 75 72
127 126 119 115 114 115 113 112 109 110 102 98 97 75 68 98 109 106 103 92 84 77